Wind_Speed
8 9 8 8 8 8 8 8 8 8 9 9 9 9 9 9 9 9 9 9 9 9 9 10 11 11 11 11 11 11 10 10 10 10 10 10 10 9 9 10 10 10 11
8 8 8 8 8 8 8 8 8 8 8 8 8 8 8 8 8 9 8 8 8 9 9 10 10 10 10 10 10 9 9 10 10 10 10 9 9 9 10 10 10 10 11
9 9 8 9 8 8 8 8 8 8 8 8 8 8 7 7 7 7 8 8 8 9 9 10 9 10 9 9 9 9 9 9 9 9 9 9 9 9 10 10 11 11 10
9 8 8 8 8 8 9 8 8 8 8 8 8 8 8 8 8 8 8 8 9 9 8 8 8 8 8 8 8 9 9 9 9 9 9 9 9 10 10 10 10 10 10
9 8 8 7 7 8 9 9 8 8 8 8 8 8 8 8 8 8 8 8 9 9 8 8 8 8 8 8 8 8 8 8 8 9 9 8 9 9 9 8 9 9 10
9 9 9 8 8 9 9 8 8 8 8 8 8 8 8 8 8 8 8 7 7 8 8 8 7 8 8 8 8 7 7 7 8 8 8 8 8 8 8 8 8 9 10
10 10 10 10 10 9 9 9 8 8 8 8 8 8 8 8 8 8 8 7 7 7 7 6 7 7 7 7 7 7 7 7 7 7 8 8 8 8 9 9 9 9 9
10 10 11 11 10 10 9 9 9 8 8 8 8 8 7 7 7 8 8 7 7 7 7 7 8 7 7 7 7 7 7 7 7 7 8 8 8 8 8 9 9 9 9
12 11 11 11 11 10 10 10 9 9 9 9 8 8 8 8 8 7 7 7 7 7 8 7 7 7 7 7 7 8 7 7 7 8 8 8 8 8 8 8 8 8 8
13 13 12 11 10 10 10 10 10 10 9 10 10 9 9 9 8 8 8 8 8 8 8 8 8 7 7 8 8 8 8 8 8 8 7 8 8 8 7 8 8 9 9
14 13 13 12 12 12 12 12 11 11 11 11 11 11 10 10 9 8 9 9 9 9 9 9 9 9 8 8 8 8 8 8 8 8 8 8 8 9 9 9 9 9 10
14 14 13 13 12 12 13 12 12 13 12 12 12 11 11 11 10 9 10 10 10 9 10 10 10 10 10 9 9 9 9 9 9 8 8 8 9 9 9 9 10 10 10
14 13 14 14 13 13 13 13 12 13 12 12 12 12 12 11 11 11 10 11 10 10 10 10 10 10 10 10 9 10 10 9 9 9 9 9 9 9 9 10 10 10 11
15 14 15 15 14 14 14 13 13 13 13 13 12 12 12 12 12 11 11 11 11 11 11 11 11 11 11 11 11 11 11 10 10 10 10 10 10 10 9 10 11 11 12
15 15 15 15 15 14 14 14 14 14 13 13 13 12 12 12 12 12 12 12 12 11 12 12 12 12 12 12 12 12 12 11 10 10 10 11 11 10 10 11 11 12 12
16 16 16 16 16 16 15 15 15 15 15 14 14 13 13 13 13 13 14 13 13 13 13 13 13 13 13 13 12 12 11 11 11 11 11 11 12 12 11 12 12 12 12
17 17 17 17 17 17 17 17 16 16 16 15 15 14 14 14 14 14 14 14 14 13 13 13 13 14 13 13 13 12 12 11 11 12 12 12 12 12 12 12 12 12 12
18 18 18 18 18 18 17 17 17 17 16 16 16 16 15 15 15 14 14 14 14 14 14 13 13 13 13 12 12 12 12 13 13 12 12 12 12 13 13 13 13 13 13
19 19 19 19 19 19 18 18 18 18 18 17 17 17 17 17 16 16 16 15 15 15 15 15 14 14 13 13 12 13 13 13 13 13 14 13 13 14 14 14 14 14 14
19 19 19 19 19 20 19 19 19 19 19 19 19 18 18 17 17 17 17 16 16 16 17 16 16 15 14 14 14 14 14 14 14 15 14 15 15 15 15 16 16 15 15
19 19 19 19 19 19 19 19 20 20 20 20 20 20 20 19 18 18 18 18 18 17 18 17 17 16 16 15 15 15 15 16 16 15 15 15 16 16 16 16 16 16 16
20 20 20 20 20 20 20 20 21 21 22 22 22 22 22 21 21 20 20 20 19 19 19 19 19 18 18 17 17 17 16 17 17 16 16 16 16 16 17 17 17 17 17
21 22 22 22 22 22 22 22 22 22 23 23 23 23 23 23 23 23 22 22 21 21 20 20 20 20 20 19 18 18 18 18 18 17 17 17 17 17 17 17 17 17 17
22 22 23 23 23 23 24 24 23 23 23 23 24 24 24 24 24 24 24 24 24 24 23 23 22 22 22 21 21 20 20 20 20 19 19 19 18 18 18 18 18 17 17
24 24 24 25 25 25 25 25 25 24 24 24 24 25 25 26 26 26 26 26 26 26 25 24 24 24 24 23 22 22 22 22 21 21 21 20 20 19 18 19 18 18 17
25 25 25 25 26 26 26 27 27 26 26 26 26 26 26 27 27 28 28 27 27 27 26 26 26 25 25 24 24 23 23 22 22 22 22 21 21 21 20 20 20 20 19
Wind_Direction
282 280 279 274 275 277 281 281 276 279 275 272 273 274 277 279 276 277 276 279 283 281 283 287 284 282 281 276 274 277 274 268 268 266 264 269 272 271 268 270 271 271 269
286 282 278 276 277 278 278 282 281 281 282 276 275 277 278 282 277 276 273 278 279 282 285 289 287 288 283 278 279 279 279 276 272 270 272 270 270 270 270 273 275 273 273
286 284 281 279 277 277 281 283 283 283 283 279 279 279 278 283 279 277 277 279 283 283 287 292 287 289 287 286 285 283 280 280 278 273 271 275 276 276 276 276 276 274 275
286 287 282 283 280 280 283 285 286 287 285 281 279 279 279 280 284 285 279 279 280 282 283 283 289 289 287 284 287 285 281 279 279 275 276 278 278 274 276 277 276 277 280
285 284 287 285 283 285 284 282 281 289 289 284 278 277 276 281 289 289 282 280 281 281 281 283 288 288 286 284 285 287 285 283 283 280 277 277 276 275 277 275 277 283 288
284 284 285 285 283 283 283 285 283 286 288 288 278 276 278 282 285 289 286 286 284 285 285 286 286 288 291 287 282 281 281 284 285 278 280 280 280 276 273 279 282 289 291
282 282 283 282 282 279 278 280 282 284 285 285 282 281 278 275 279 284 282 283 285 289 287 287 292 293 293 292 286 279 282 290 291 286 282 281 282 281 280 280 286 290 292
283 283 277 279 281 280 277 274 278 284 284 284 284 285 281 278 277 277 280 276 282 291 298 300 304 305 300 296 291 290 294 294 294 294 292 292 288 284 282 284 288 294 296
285 282 282 280 279 278 275 271 273 275 278 282 284 285 283 281 278 279 281 279 279 288 296 295 305 308 306 305 296 289 291 294 292 293 293 293 290 287 285 287 292 301 302
287 285 285 282 283 280 275 272 270 271 273 275 277 281 284 283 280 278 275 275 280 284 288 287 291 297 298 302 297 289 287 286 287 289 290 290 290 291 288 291 294 297 299
283 281 281 280 280 278 275 270 270 273 274 274 277 278 280 280 275 272 275 275 279 281 288 289 285 286 290 296 294 290 285 282 283 284 290 290 291 288 285 289 292 295 298
281 277 276 276 275 275 277 273 268 272 275 277 277 276 277 277 275 273 274 274 278 279 283 287 289 287 286 286 287 289 287 283 281 285 289 288 289 287 285 288 291 295 299
281 277 273 272 273 274 275 274 271 272 274 279 278 275 274 275 274 276 274 273 275 278 282 284 286 288 289 289 286 290 289 287 284 283 283 284 285 282 283 287 292 295 300
281 279 274 271 272 271 272 273 274 273 272 273 275 275 273 271 272 274 272 273 272 275 279 283 285 283 284 284 284 287 285 282 281 281 281 283 283 282 284 290 294 296 301
282 278 274 273 272 272 272 271 273 273 271 268 269 272 274 272 274 274 272 274 273 274 279 281 283 282 283 283 281 282 280 279 279 280 279 280 282 283 284 291 296 296 298
279 278 274 273 272 270 270 271 270 269 269 268 267 270 272 271 272 274 275 273 274 276 278 280 280 280 280 280 280 282 279 279 278 277 278 280 282 284 285 289 293 294 296
277 276 274 273 272 268 266 268 268 268 270 269 267 268 268 269 270 271 273 272 272 275 277 278 279 279 277 278 279 278 278 277 278 278 280 282 282 284 285 287 292 295 297
277 275 272 272 270 268 266 265 266 267 268 269 268 267 268 269 269 267 271 272 270 272 274 277 278 277 276 276 276 275 275 277 278 279 281 283 283 283 285 288 291 293 297
276 274 272 271 269 267 266 266 266 265 266 267 267 267 267 268 268 266 267 268 268 271 272 273 274 274 273 274 275 273 272 274 275 278 279 281 281 283 284 286 289 290 292
273 273 272 271 269 267 264 264 264 265 265 266 267 267 268 266 265 264 264 266 266 269 269 270 272 272 272 272 272 273 273 274 274 277 278 278 279 282 283 283 286 288 290
274 273 271 270 269 267 265 265 264 264 266 267 266 266 267 266 265 264 264 265 264 267 268 267 270 271 270 271 270 271 272 274 275 276 278 279 279 280 282 283 285 286 287
273 272 271 270 268 267 266 266 266 266 267 267 265 265 265 265 265 264 263 263 264 265 266 266 267 269 269 269 269 269 271 274 275 275 276 278 281 282 283 284 285 285 286
273 272 271 270 268 268 268 268 269 268 267 267 266 265 265 264 264 263 263 263 263 264 266 265 266 268 268 267 268 269 271 273 272 273 274 276 279 280 282 284 286 288 286
274 272 271 269 267 267 267 268 270 270 269 268 268 266 266 265 263 262 262 262 263 264 264 265 265 266 267 266 268 270 272 273 271 271 273 274 276 278 280 282 283 285 285
274 273 273 271 268 267 267 268 269 269 269 269 269 268 267 265 264 263 262 262 263 263 263 263 266 265 266 266 268 271 271 273 270 270 271 273 275 277 279 280 280 282 282
275 275 275 273 270 268 267 267 267 267 267 268 268 268 268 265 264 264 263 262 262 262 263 263 264 264 264 265 268 270 270 269 268 269 270 272 273 276 277 277 278 279 279
Height
5848 5848 5848 5849 5849 5849 5849 5849 5849 5849 5849 5849 5849 5849 5849 5849 5849 5849 5849 5850 5850 5850 5850 5850 5850 5850 5850 5850 5850 5851 5851 5850 5851 5851 5851 5851 5852 5852 5852 5853 5853 5854 5854
5847 5847 5847 5847 5847 5847 5847 5847 5847 5847 5847 5847 5847 5847 5847 5847 5847 5847 5847 5848 5848 5848 5848 5848 5848 5848 5848 5848 5848 5848 5848 5848 5849 5849 5849 5850 5850 5850 5850 5851 5851 5852 5852
5845 5845 5845 5845 5845 5845 5845 5846 5845 5846 5846 5845 5845 5845 5845 5845 5845 5845 5846 5846 5846 5846 5846 5846 5846 5846 5846 5846 5846 5846 5846 5846 5847 5847 5847 5848 5848 5848 5849 5849 5849 5849 5849
5844 5844 5844 5844 5844 5844 5844 5844 5844 5844 5844 5844 5844 5844 5844 5844 5844 5844 5844 5844 5845 5845 5845 5844 5844 5845 5844 5844 5844 5844 5845 5845 5845 5845 5845 5846 5846 5846 5846 5847 5847 5847 5847
5842 5842 5842 5842 5842 5842 5842 5842 5842 5842 5842 5842 5842 5842 5842 5843 5842 5842 5842 5842 5843 5843 5843 5843 5843 5843 5843 5843 5843 5843 5843 5843 5843 5843 5844 5844 5844 5844 5844 5844 5844 5844 5844
5840 5840 5841 5841 5841 5841 5841 5841 5841 5841 5841 5841 5841 5841 5841 5841 5841 5841 5841 5841 5841 5841 5841 5841 5841 5841 5841 5841 5841 5841 5841 5842 5842 5842 5842 5842 5842 5842 5842 5842 5842 5842 5841
5838 5839 5839 5839 5839 5839 5839 5839 5839 5839 5839 5839 5839 5839 5839 5840 5840 5840 5840 5840 5840 5840 5840 5840 5840 5840 5840 5840 5840 5840 5840 5840 5840 5840 5840 5841 5841 5840 5840 5840 5840 5840 5839
5836 5836 5836 5836 5837 5836 5836 5837 5837 5837 5837 5837 5838 5838 5838 5839 5838 5838 5838 5838 5838 5838 5838 5838 5838 5838 5838 5838 5838 5838 5838 5838 5838 5839 5839 5839 5838 5838 5839 5838 5838 5838 5837
5834 5833 5834 5834 5834 5834 5834 5835 5835 5836 5836 5836 5836 5836 5836 5836 5836 5836 5836 5837 5837 5837 5837 5837 5837 5837 5837 5836 5836 5836 5837 5837 5837 5837 5837 5837 5836 5837 5836 5836 5836 5835 5834
5831 5831 5831 5831 5832 5832 5832 5832 5833 5833 5834 5834 5834 5834 5834 5834 5834 5834 5835 5835 5835 5836 5835 5835 5835 5835 5835 5835 5835 5835 5835 5835 5835 5835 5835 5835 5835 5835 5834 5834 5834 5833 5832
5828 5828 5828 5829 5829 5829 5829 5830 5830 5831 5831 5831 5831 5831 5832 5832 5832 5832 5833 5833 5833 5833 5833 5833 5833 5833 5833 5833 5833 5833 5833 5833 5833 5833 5833 5833 5833 5833 5832 5832 5831 5831 5830
5825 5825 5825 5825 5826 5826 5826 5827 5827 5828 5828 5829 5829 5829 5829 5829 5830 5830 5830 5831 5831 5831 5831 5831 5831 5831 5831 5831 5831 5831 5831 5831 5831 5831 5831 5831 5831 5830 5830 5830 5829 5828 5827
5821 5821 5821 5822 5822 5823 5823 5824 5824 5825 5825 5826 5826 5826 5827 5827 5827 5827 5828 5828 5828 5829 5828 5829 5829 5829 5829 5829 5829 5829 5829 5829 5829 5829 5829 5829 5828 5828 5828 5827 5826 5826 5825
5817 5817 5817 5818 5818 5819 5820 5820 5821 5822 5822 5822 5823 5823 5824 5824 5824 5824 5825 5825 5826 5826 5826 5826 5826 5826 5826 5826 5826 5827 5827 5826 5826 5826 5826 5826 5826 5825 5825 5824 5824 5823 5822
5812 5812 5813 5813 5814 5815 5816 5816 5817 5818 5819 5819 5819 5820 5820 5821 5821 5821 5821 5822 5823 5823 5823 5823 5823 5823 5823 5823 5823 5824 5823 5823 5823 5823 5823 5823 5823 5823 5822 5821 5821 5820 5819
5808 5808 5808 5809 5810 5811 5812 5812 5813 5814 5815 5815 5816 5816 5817 5817 5817 5817 5818 5818 5819 5820 5820 5820 5820 5820 5820 5820 5820 5820 5820 5820 5821 5820 5820 5820 5820 5820 5819 5818 5818 5817 5816
5803 5803 5803 5804 5805 5806 5807 5808 5809 5809 5810 5811 5812 5812 5813 5813 5814 5814 5814 5815 5815 5816 5817 5817 5817 5817 5817 5817 5817 5817 5817 5817 5817 5817 5817 5817 5817 5816 5816 5815 5815 5814 5813
5798 5798 5798 5799 5800 5801 5802 5803 5804 5805 5806 5806 5807 5808 5809 5809 5810 5810 5810 5811 5812 5812 5813 5813 5813 5813 5813 5813 5814 5814 5814 5814 5814 5814 5814 5814 5813 5813 5812 5812 5811 5810 5809
5793 5793 5793 5794 5795 5795 5797 5798 5799 5800 5801 5801 5802 5803 5804 5804 5805 5806 5806 5807 5807 5808 5808 5809 5809 5809 5810 5810 5810 5810 5810 5810 5810 5810 5810 5810 5809 5809 5808 5808 5807 5806 5805
5787 5788 5788 5789 5789 5790 5791 5792 5793 5794 5795 5796 5797 5798 5798 5799 5800 5801 5802 5802 5803 5803 5804 5804 5805 5805 5805 5805 5806 5806 5806 5806 5806 5806 5806 5805 5805 5804 5804 5803 5802 5802 5801
5782 5782 5783 5783 5784 5785 5786 5787 5787 5788 5789 5790 5791 5792 5793 5794 5795 5795 5796 5797 5797 5798 5799 5799 5800 5800 5801 5801 5801 5801 5802 5801 5801 5801 5801 5800 5800 5800 5799 5798 5797 5797 5796
5776 5776 5777 5777 5778 5779 5780 5780 5781 5782 5783 5784 5785 5785 5786 5788 5789 5789 5790 5791 5792 5793 5793 5794 5795 5795 5796 5796 5796 5796 5796 5796 5796 5796 5796 5796 5795 5794 5794 5793 5792 5792 5791
5770 5770 5771 5771 5772 5773 5773 5774 5774 5775 5776 5777 5778 5779 5780 5781 5782 5783 5784 5785 5786 5786 5787 5788 5789 5789 5790 5790 5790 5791 5791 5791 5790 5790 5790 5790 5790 5789 5789 5788 5787 5786 5786
5764 5764 5764 5764 5765 5765 5766 5766 5767 5768 5768 5769 5770 5771 5772 5773 5774 5775 5777 5778 5779 5780 5780 5781 5782 5783 5783 5784 5784 5785 5785 5784 5784 5784 5784 5785 5784 5784 5783 5782 5782 5781 5780
5757 5757 5757 5757 5757 5758 5758 5759 5759 5760 5761 5761 5762 5763 5764 5765 5766 5767 5768 5770 5771 5772 5773 5774 5775 5775 5776 5777 5777 5778 5778 5778 5778 5778 5778 5778 5778 5778 5778 5777 5776 5775 5775
5749 5749 5749 5749 5749 5750 5750 5750 5751 5752 5753 5753 5754 5755 5755 5756 5757 5758 5759 5761 5762 5763 5765 5766 5767 5767 5768 5769 5770 5770 5771 5771 5771 5772 5772 5772 5772 5772 5772 5771 5770 5770 5769